�������C�����ː����j�^�v���󋵏��
Date,Time,Cs137(Bq/L),Cs134(Bq/L),�S��(Bq/L)
2020/02/17,00:00,ND,ND,24
2020/02/17,00:10,ND,ND,27
2020/02/17,00:20,0.049,ND,25
2020/02/17,00:30,0.049,ND,24
2020/02/17,00:40,0.070,ND,27
2020/02/17,00:50,0.084,ND,29
2020/02/17,01:00,0.099,ND,27
2020/02/17,01:10,0.11,ND,24
2020/02/17,01:20,0.080,ND,22
2020/02/17,01:30,0.073,ND,23
2020/02/17,01:40,0.072,ND,20
2020/02/17,01:50,0.058,ND,17
2020/02/17,02:00,0.052,ND,20
2020/02/17,02:10,ND,ND,20
2020/02/17,02:20,0.068,ND,22
2020/02/17,02:30,0.069,ND,20
2020/02/17,02:40,0.053,ND,20
2020/02/17,02:50,0.052,ND,22
2020/02/17,03:00,0.065,ND,19
2020/02/17,03:10,0.053,ND,21
2020/02/17,03:20,ND,ND,20
2020/02/17,03:30,ND,ND,21
2020/02/17,03:40,ND,ND,21
2020/02/17,03:50,ND,ND,22
2020/02/17,04:00,ND,ND,22
2020/02/17,04:10,ND,ND,22
2020/02/17,04:20,ND,ND,25
2020/02/17,04:30,ND,ND,25
2020/02/17,04:40,ND,ND,25
2020/02/17,04:50,ND,ND,24
2020/02/17,05:00,ND,ND,24
2020/02/17,05:10,ND,ND,22
2020/02/17,05:20,ND,ND,22
2020/02/17,05:30,ND,ND,22
2020/02/17,05:40,ND,ND,22
2020/02/17,05:50,ND,ND,22
2020/02/17,06:00,ND,ND,24
2020/02/17,06:10,ND,ND,24
2020/02/17,06:20,0.053,ND,24
2020/02/17,06:30,0.062,ND,26
2020/02/17,06:40,0.068,ND,29
2020/02/17,06:50,0.080,ND,30
2020/02/17,07:00,0.070,ND,28
2020/02/17,07:10,0.063,ND,28
2020/02/17,07:20,0.053,ND,26
2020/02/17,07:30,0.053,ND,23
2020/02/17,07:40,ND,ND,22
2020/02/17,07:50,ND,ND,19
2020/02/17,08:00,0.048,ND,20
2020/02/17,08:10,ND,ND,20
2020/02/17,08:20,ND,ND,21
2020/02/17,08:30,ND,ND,21
2020/02/17,08:40,ND,ND,21
2020/02/17,08:50,ND,ND,22
2020/02/17,09:00,ND,ND,24
2020/02/17,09:10,ND,ND,23
2020/02/17,09:20,0.059,ND,21
2020/02/17,09:30,0.067,ND,21
2020/02/17,09:40,0.068,ND,20
2020/02/17,09:50,0.080,ND,21
2020/02/17,10:00,0.076,ND,22
2020/02/17,10:10,0.090,ND,23
2020/02/17,10:20,0.082,ND,26
2020/02/17,10:30,0.082,ND,27
2020/02/17,10:40,0.067,ND,26
2020/02/17,10:50,0.083,ND,27
2020/02/17,11:00,0.091,ND,26
2020/02/17,11:10,0.073,ND,26
2020/02/17,11:20,0.083,ND,24
2020/02/17,11:30,0.079,ND,26
2020/02/17,11:40,0.10,ND,27
2020/02/17,11:50,0.073,ND,29
2020/02/17,12:00,0.086,ND,26
2020/02/17,12:10,0.092,ND,28
2020/02/17,12:20,0.086,ND,30
2020/02/17,12:30,0.085,ND,29
2020/02/17,12:40,0.074,ND,28
2020/02/17,12:50,0.082,ND,23
2020/02/17,13:00,0.072,ND,25
2020/02/17,13:10,0.064,ND,23
2020/02/17,13:20,0.076,ND,23
2020/02/17,13:30,0.064,ND,22
2020/02/17,13:40,0.069,ND,25
2020/02/17,13:50,0.075,ND,28
2020/02/17,14:00,0.073,ND,30
2020/02/17,14:10,0.085,ND,30
2020/02/17,14:20,0.085,ND,29
2020/02/17,14:30,0.095,ND,31
2020/02/17,14:40,0.096,ND,31
2020/02/17,14:50,0.080,ND,29
2020/02/17,15:00,0.082,ND,25
2020/02/17,15:10,0.090,ND,26
2020/02/17,15:20,0.082,ND,25
2020/02/17,15:30,0.081,ND,25
2020/02/17,15:40,0.084,ND,24
2020/02/17,15:50,0.095,ND,23
2020/02/17,16:00,0.085,ND,26
2020/02/17,16:10,0.064,ND,24
2020/02/17,16:20,0.067,ND,26
2020/02/17,16:30,0.061,ND,26
2020/02/17,16:40,0.058,ND,27
2020/02/17,16:50,0.053,ND,30
2020/02/17,17:00,0.062,ND,30
2020/02/17,17:10,0.084,ND,31
2020/02/17,17:20,0.074,ND,29
2020/02/17,17:30,0.071,ND,27
2020/02/17,17:40,0.083,ND,26
2020/02/17,17:50,0.082,ND,26
2020/02/17,18:00,0.078,ND,25
2020/02/17,18:10,0.079,ND,25
2020/02/17,18:20,0.078,ND,26
2020/02/17,18:30,0.093,ND,27
2020/02/17,18:40,0.091,ND,28
2020/02/17,18:50,0.089,ND,25
2020/02/17,19:00,0.11,ND,24
2020/02/17,19:10,0.10,ND,23
2020/02/17,19:20,0.12,ND,26
2020/02/17,19:30,0.11,ND,25
2020/02/17,19:40,0.12,ND,24
2020/02/17,19:50,0.13,ND,24
2020/02/17,20:00,0.12,ND,25
2020/02/17,20:10,0.099,ND,26
2020/02/17,20:20,0.091,ND,24
2020/02/17,20:30,0.092,ND,26
2020/02/17,20:40,0.089,ND,26
2020/02/17,20:50,0.086,ND,27
2020/02/17,21:00,0.11,ND,28
2020/02/17,21:10,0.13,ND,27
2020/02/17,21:20,0.14,ND,28
2020/02/17,21:30,0.14,ND,24
2020/02/17,21:40,0.15,ND,24
2020/02/17,21:50,0.14,ND,25
2020/02/17,22:00,0.12,ND,23
2020/02/17,22:10,0.13,ND,21
2020/02/17,22:20,0.12,ND,21
2020/02/17,22:30,0.096,ND,25
2020/02/17,22:40,0.099,ND,25
2020/02/17,22:50,0.097,ND,22
2020/02/17,23:00,0.092,ND,25
2020/02/17,23:10,0.079,ND,25
2020/02/17,23:20,0.080,ND,24
2020/02/17,23:30,0.082,ND,24
2020/02/17,23:40,0.074,ND,24
2020/02/17,23:50,0.079,ND,26
